Date String (YYYY-MM-DD hh:mm:ss) UTC,Instrument flags,absolute air pressure of the measurement (hPa),sample flow rate (lpm),inlet stack bypass flow (lpm),air temperature of the measurement (°C),ambient temperature measured by the external sensor (°C),aerosol sample conditioner tube jacket temperature (°C),OPC LED temperature (°C),internal box temperature (°C),relative humidity of the measurement (%),span deviation,mass concentration of particles derived from Lorenz-Mie calculation of OPC scattering (μg/m³),mass concentration of particles derived from Lorenz-Mie calculation of OPC scattering (μg/m³),mass concentration of particles derived from Lorenz-Mie calculation of OPC scattering (μg/m³)
DateTimeUTC,F1_M11,P_M11,Q1_M11,Q2_M11,T1_M11,T2_M11,T3_M11,T4_M11,T5_M11,U1_M11,ZSPAN_M11,X0_M11,X2_M11,X1_M11
2023-07-05 21:00:00,SystemResetWarning,0835.1,5.00,000.00,029.8,028.3,000.0,038.3,031.3,33.6,-003.8,0011.84,0008.14,0007.80
2023-07-05 21:01:00,SystemResetWarning,0835.1,5.02,000.00,029.8,028.4,000.0,038.3,031.3,33.4,-003.9,0011.79,0008.09,0007.74
2023-07-05 21:02:00,SystemResetWarning,0835.0,4.98,000.00,029.8,028.5,000.0,038.3,031.4,33.5,-004.1,0011.77,0008.04,0007.68
2023-07-05 21:03:00,SystemResetWarning,0835.0,4.99,000.00,029.9,028.6,000.0,038.4,031.4,33.6,-004.1,0011.95,0007.99,0007.63
2023-07-05 21:04:00,SystemResetWarning,0835.1,5.02,000.00,029.9,028.6,000.0,038.4,031.4,33.8,-004.1,0011.68,0007.92,0007.58
2023-07-05 21:05:00,SystemResetWarning,0835.1,4.99,000.00,029.9,028.7,000.0,038.4,031.5,33.7,-004.1,0011.62,0007.89,0007.56
2023-07-05 21:06:00,SystemResetWarning,0835.2,4.99,000.00,029.9,028.7,000.0,038.4,031.5,33.6,-004.1,0011.60,0007.84,0007.50
2023-07-05 21:07:00,SystemResetWarning,0835.3,5.01,000.00,030.0,028.8,000.0,038.4,031.5,33.7,-004.2,0011.32,0007.80,0007.44
2023-07-05 21:08:00,SystemResetWarning,0835.3,5.01,000.00,030.0,028.8,000.0,038.4,031.5,33.6,-004.3,0011.16,0007.79,0007.39
2023-07-05 21:09:00,SystemResetWarning,0835.2,5.01,000.00,030.0,028.9,000.0,038.4,031.6,33.3,-004.3,0011.21,0007.74,0007.35
2023-07-05 21:10:00,SystemResetWarning,0835.2,5.00,000.00,030.0,028.9,000.0,038.5,031.6,33.1,-004.3,0011.23,0007.73,0007.32
2023-07-05 21:11:00,SystemResetWarning,0835.2,4.99,000.00,030.1,028.9,000.0,038.5,031.6,32.7,-004.4,0011.33,0007.72,0007.30
2023-07-05 21:12:00,SystemResetWarning,0835.2,4.98,000.00,030.1,028.4,000.0,038.5,031.6,32.8,-004.3,0011.45,0007.75,0007.29
2023-07-05 21:13:00,SystemResetWarning,0835.2,5.01,000.00,030.0,026.4,000.0,038.3,031.5,32.8,-004.2,0011.48,0007.77,0007.32
2023-07-05 21:14:00,SystemResetWarning,0835.3,5.00,000.00,030.0,025.6,000.0,038.2,031.2,33.3,-004.1,0011.35,0007.79,0007.34
2023-07-05 21:15:00,SystemResetWarning,0835.3,5.02,000.00,029.8,025.6,000.0,038.3,030.9,33.4,-004.0,0011.35,0007.82,0007.34
2023-07-05 21:16:00,SystemResetWarning,0835.3,4.99,000.00,029.7,026.0,000.0,038.3,030.9,33.6,-004.1,0011.55,0007.81,0007.33
2023-07-05 21:17:00,SystemResetWarning,0835.4,5.00,000.00,029.7,026.4,000.0,038.3,030.9,33.9,-004.2,0011.65,0007.81,0007.33
2023-07-05 21:18:00,SystemResetWarning,0835.5,5.00,000.00,029.7,026.8,000.0,038.3,031.0,34.1,-004.2,0011.64,0007.83,0007.35
2023-07-05 21:19:00,SystemResetWarning,0835.5,5.00,000.00,029.7,027.1,000.0,038.3,031.0,34.1,-004.1,0011.83,0007.87,0007.40
2023-07-05 21:20:00,SystemResetWarning,0835.3,4.99,000.00,029.7,027.4,000.0,038.3,031.1,34.0,-003.9,0011.82,0007.88,0007.43
2023-07-05 21:21:00,SystemResetWarning,0835.2,4.99,000.00,029.7,027.6,000.0,038.3,031.1,34.0,-003.8,0011.91,0007.90,0007.45
2023-07-05 21:22:00,SystemResetWarning,0835.3,5.00,000.00,029.7,027.8,000.0,038.3,031.2,33.8,-003.7,0012.24,0007.93,0007.49
2023-07-05 21:23:00,SystemResetWarning,0835.2,5.00,000.00,029.7,028.0,000.0,038.3,031.2,34.0,-003.8,0012.14,0007.94,0007.52
2023-07-05 21:24:00,SystemResetWarning,0835.1,5.00,000.00,029.7,028.1,000.0,038.3,031.2,34.1,-003.7,0012.20,0007.96,0007.53
2023-07-05 21:25:00,SystemResetWarning,0835.1,5.00,000.00,029.7,028.3,000.0,038.3,031.3,33.9,-003.8,0012.31,0008.00,0007.57
2023-07-05 21:26:00,SystemResetWarning,0835.2,5.00,000.00,029.8,028.4,000.0,038.3,031.3,33.9,-003.8,0012.24,0008.00,0007.61
2023-07-05 21:27:00,SystemResetWarning,0835.3,5.00,000.00,029.8,028.5,000.0,038.3,031.3,33.8,-003.7,0012.12,0008.05,0007.68
2023-07-05 21:28:00,SystemResetWarning,0835.3,5.00,000.00,029.8,028.5,000.0,038.3,031.4,33.8,-003.7,0012.25,0008.13,0007.76
2023-07-05 21:29:00,SystemResetWarning,0835.4,4.99,000.00,029.8,028.6,000.0,038.3,031.4,33.8,-003.7,0012.33,0008.22,0007.85
2023-07-05 21:30:00,SystemResetWarning,0835.5,4.99,000.00,029.9,028.6,000.0,038.3,031.4,33.7,-003.9,0012.36,0008.26,0007.89
2023-07-05 21:31:00,SystemResetWarning,0835.5,5.00,000.00,029.9,028.7,000.0,038.3,031.4,33.4,-004.0,0012.27,0008.30,0007.92
2023-07-05 21:32:00,SystemResetWarning,0835.6,5.01,000.00,029.9,028.7,000.0,038.4,031.5,33.5,-004.0,0012.82,0008.37,0007.99
2023-07-05 21:33:00,SystemResetWarning,0835.6,5.00,000.00,029.9,028.8,000.0,038.4,031.5,33.6,-003.9,0012.54,0008.44,0008.03
2023-07-05 21:34:00,SystemResetWarning,0835.7,5.01,000.00,030.0,028.8,000.0,038.4,031.5,33.4,-003.7,0012.62,0008.50,0008.10
2023-07-05 21:35:00,SystemResetWarning,0835.8,5.00,000.00,030.0,028.8,000.0,038.4,031.5,33.4,-003.7,0012.81,0008.57,0008.16
2023-07-05 21:36:00,SystemResetWarning,0835.8,5.00,000.00,030.0,028.8,000.0,038.4,031.6,33.5,-003.6,0012.82,0008.61,0008.19
2023-07-05 21:37:00,SystemResetWarning,0835.8,4.98,000.00,030.0,027.3,000.0,038.4,031.5,33.5,-003.5,0013.02,0008.66,0008.22
2023-07-05 21:38:00,SystemResetWarning,0835.7,5.02,000.00,029.9,025.8,000.0,038.2,031.3,33.6,-003.7,0013.16,0008.71,0008.25
2023-07-05 21:39:00,SystemResetWarning,0835.6,5.01,000.00,029.8,025.4,000.0,038.2,031.0,33.6,-003.6,0013.09,0008.74,0008.27
2023-07-05 21:40:00,SystemResetWarning,0835.5,4.99,000.00,029.7,025.7,000.0,038.2,030.8,34.0,-003.8,0013.17,0008.75,0008.26
2023-07-05 21:41:00,SystemResetWarning,0835.6,4.99,000.00,029.6,026.1,000.0,038.2,030.8,34.2,-003.6,0013.16,0008.76,0008.26
2023-07-05 21:42:00,SystemResetWarning,0835.5,5.01,000.00,029.6,026.5,000.0,038.2,030.9,34.2,-003.5,0013.17,0008.78,0008.28
2023-07-05 21:43:00,SystemResetWarning,0835.5,5.01,000.00,029.6,026.8,000.0,038.2,031.0,34.4,-003.4,0012.79,0008.79,0008.29
2023-07-05 21:44:00,SystemResetWarning,0835.5,4.98,000.00,029.6,027.2,000.0,038.2,031.0,34.5,-003.4,0012.71,0008.78,0008.31
2023-07-05 21:45:00,SystemResetWarning,0835.5,5.01,000.00,029.6,027.4,000.0,038.2,031.1,34.7,-003.4,0012.81,0008.81,0008.32
2023-07-05 21:46:00,SystemResetWarning,0835.5,5.01,000.00,029.6,027.7,000.0,038.2,031.1,34.9,-003.5,0012.65,0008.78,0008.30
2023-07-05 21:47:00,SystemResetWarning,0835.5,5.00,000.00,029.6,027.8,000.0,038.2,031.1,34.8,-003.6,0012.54,0008.75,0008.29
2023-07-05 21:48:00,SystemResetWarning,0835.5,5.00,000.00,029.6,028.0,000.0,038.2,031.2,34.7,-003.6,0012.35,0008.72,0008.27
2023-07-05 21:49:00,SystemResetWarning,0835.4,4.99,000.00,029.7,028.1,000.0,038.2,031.2,35.2,-003.5,0012.22,0008.67,0008.24
2023-07-05 21:50:00,SystemResetWarning,0835.4,5.04,000.00,029.8,028.2,000.0,038.2,031.3,35.0,-003.3,0012.18,0008.64,0008.22
2023-07-05 21:51:00,SystemResetWarning,0835.5,4.96,000.00,030.1,028.3,000.0,038.2,031.4,34.3,-003.2,0012.10,0008.62,0008.22
2023-07-05 21:52:00,SystemResetWarning,0835.5,5.02,000.00,030.2,028.3,000.0,038.3,031.4,33.6,-003.2,0012.16,0008.63,0008.22
2023-07-05 21:53:00,SystemResetWarning,0835.5,5.00,000.00,030.3,028.4,000.0,038.3,031.4,33.2,-003.1,0012.22,0008.65,0008.22
2023-07-05 21:54:00,SystemResetWarning,0835.5,4.99,000.00,030.4,028.5,000.0,038.4,031.5,33.1,-003.0,0012.10,0008.61,0008.18
2023-07-05 21:55:00,SystemResetWarning,0835.5,5.00,000.00,030.4,028.5,000.0,038.4,031.5,32.9,-003.0,0012.52,0008.59,0008.14
2023-07-05 21:56:00,SystemResetWarning,0835.5,5.00,000.00,030.5,028.6,000.0,038.5,031.5,32.8,-002.9,0012.55,0008.56,0008.11
2023-07-05 21:57:00,SystemResetWarning,0835.5,5.00,000.00,030.5,028.6,000.0,038.6,031.5,32.7,-002.9,0012.45,0008.50,0008.09
2023-07-05 21:58:00,SystemResetWarning,0835.5,5.00,000.00,030.5,028.7,000.0,038.6,031.5,32.7,-002.9,0012.61,0008.56,0008.09
2023-07-05 21:59:00,SystemResetWarning,0835.5,5.00,000.00,030.5,028.7,000.0,038.7,031.6,32.9,-002.9,0012.83,0008.60,0008.08
